Regional Weather Roundup
Issued by NWS Sterling, VA

Home | Current Version | Previous Version | Graphics & Text | Print | Product List | Glossary On
Versions: 1 2 3 4 5 6 7 8 9 10 11 12 13 14 15 16 17 18 19 20 21 22 23 24 25 26 27 28 29 30 31 32 33 34 35 36 37 38 39 40 41 42 43 44 45 46 47 48 49 50
000
ASUS41 KLWX 240811
RWRLWX

REGIONAL WEATHER ROUNDUP
NATIONAL WEATHER SERVICE BALTIMORE MD/WASHINGTON DC
300 AM EST SAT FEB 24 2018

Note: "FAIR" indicates few or no clouds below 12,000 feet
with no significant weather and/or obstructions to visibility.
 TC=TEMPERATURE CELSIUS

 * =Non NWS site. Station does not report precipitation (e.g. rain,
    snow, etc.), thunder, or fog.

DCZ001-MDZ009-015-VAZ040>042-051-053>054-240900-
WASHINGTON METRO

CITY           SKY/WX    TMP DP  RH WIND       PRES   REMARKS
WASHINGTON NAT FOG       49  49 100 CALM      30.19F VSB 1/16
DULLES         FOG       48  48 100 S3        30.18F VSB 3/4
ANDREWS AFB    FOG       48  48  99 CALM      30.18F VSB 1/4
FT BELVOIR     FOG       48  47  97 CALM      30.19F VSB 5/8
QUANTICO       CLOUDY    50  50 100 S3        30.20F
COLLEGE PARK*  CLOUDY    47  47  99 CALM      30.19F VSB 1/2
LEESBURG*      FOG       43  43 100 CALM      30.20S VSB 1
MANASSAS*      CLOUDY    49  48  97 SE3       30.19F FOG
GAITHERSBURG*  FOG       46  46 100 SW3       30.19F VSB 1/2

$$

MDZ006>007-011-014-240900-
BALTIMORE METRO

CITY           SKY/WX    TMP DP  RH WIND       PRES   REMARKS
BWI AIRPORT    FOG       45  45 100 S6        30.19F VSB 1/8
MD SCIENCE CTR   N/A     47  46  97 MISG      30.20F
MARTIN STATE   CLOUDY    45  45 100 CALM      30.20F FOG
ANNAPOLIS      FOG       46  46 100 SE5       30.20F VSB 1/4
FORT MEADE*    CLOUDY    45  45 100 CALM      30.22F VSB 1/2

$$

MDZ012-015-019>023-240900-
MARYLAND EASTERN SHORE

CITY           SKY/WX    TMP DP  RH WIND       PRES   REMARKS
OCEAN CITY     FOG       48  48 100 SW5       30.22F VSB 1/2
SALISBURY      FOG       49  49 100 SW3       30.21F VSB 3/4
BAY BRIDGE AP* FOG       46  46 100 S3        30.20F VSB 1/2
CAMBRIDGE*     FOG       48  48 100 CALM      30.21F VSB 1/4
EASTON*        FOG       48  47  95 SW3       30.25F VSB 1/2

$$

MDZ017>025-240900-
SOUTHERN MARYLAND

CITY           SKY/WX    TMP DP  RH WIND       PRES   REMARKS
PATUXENT RIVER CLOUDY    50  50 100 S5        30.19F FOG
ST INIGOES     CLOUDY    50  49  96 S3        30.20F FOG
LEONARDTOWN*   CLOUDY    50  48  93 W3        30.22F

$$

MDZ003>005-240900-
NORTH CENTRAL MARYLAND

CITY           SKY/WX    TMP DP  RH WIND       PRES   REMARKS
FREDERICK*     CLOUDY    46  46 100 SW7       30.21F FOG
HAGERSTOWN APT FOG       45  43  93 S5        30.17F VSB 1/4
WESTMINSTER*   FOG       45  45 100 S3        30.17F VSB 1/4

$$

MDZ501>502-240900-
WESTERN MARYLAND

CITY           SKY/WX    TMP DP  RH WIND       PRES   REMARKS
OAKLAND*       CLOUDY    54  54 100 W3        30.18S
CUMBERLAND*    CLOUDY    43  43 100 CALM      30.22F

$$

VAZ025>031-240900-
SHENANDOAH VALLEY

CITY           SKY/WX    TMP DP  RH WIND       PRES   REMARKS
WINCHESTER*    CLOUDY    39  39 100 CALM      30.18F FOG
FRONT ROYAL*   FAIR      41  41 100 CALM      30.16F
LURAY*         FAIR      45  45 100 N5        30.17F
NEW MARKET*    MOCLDY    44  43  96 CALM      30.17F
STAUNTON*      FAIR      46  45  96 CALM      30.20F
WAYNESBORO*    FAIR      47  47  99 SE3       30.19S

$$

WVZ021-048>050-054>055-240900-
EASTERN WEST VIRGINIA PANHANDLE

CITY           SKY/WX    TMP DP  RH WIND       PRES   REMARKS
MARTINSBURG    FOG       42  42 100 CALM      30.16F VSB 1/4
PETERSBURG*    FOG       43  43 100 CALM      30.17F VSB 1/4

$$

VAZ036>039-050-240900-
CENTRAL FOOTHILLS

CITY           SKY/WX    TMP DP  RH WIND       PRES   REMARKS
CHARLOTTESVILL CLOUDY    48  47  96 CALM      30.17F FOG
CULPEPER*      CLOUDY    49  48  95 CALM      30.19F FOG
ORANGE*        CLOUDY    50  48  93 CALM      30.17F FOG
GORDONSVILLE*  CLOUDY    49  49 100 SW3       30.17F FOG
WARRENTON*     CLOUDY    51  47  88 CALM      30.18F

$$

VAZ055>057-240900-
NORTH AND CENTRAL PIEDMONT

CITY           SKY/WX    TMP DP  RH WIND       PRES   REMARKS
FREDERICKSBRG* MOCLDY    51  51 100 CALM      30.18F
STAFFORD*      CLOUDY    49  49 100 CALM      30.22F FOG

$$

NCZ024-NYZ072-PAZ021-071-VAZ022-071-240900-
OTHER REGIONAL OBSERVATIONS

CITY           SKY/WX    TMP DP  RH WIND       PRES   REMARKS
NEW YORK CITY  CLOUDY    43  39  87 VRB5      30.18S
PHILADELPHIA   CLOUDY    44  43  96 W7        30.20F
PITTSBURGH     CLOUDY    52  50  93 N7        30.16S
ROANOKE        FAIR      47  45  93 CALM      30.23F
RICHMOND       CLOUDY    49  49 100 SW3       30.21F FOG
RALEIGH        FAIR      59  59 100 SW7       30.25F

$$

ANZ530>537-240900-
MARINE OBSERVATIONS

STATION/POSITION TIME  TEMP    WIND        PRES
                       AIR SEA DIR/SP/G
                 (UTC) (F)     (DEG/KT/KT) (MB)
THOMAS PT LIGHT  0800   44 42  190/  5/  6   N/A
BALT KEY BRIDGE  0742   44     160/  6/  6 1022.6F
COVE POINT       0742   44     180/  7/  8 1023.4F
LEWISETTA        0742   49 49   80/  2/  3 1023.2F
SOLOMONS ISLAND  0742   48 43  180/  5/  6 1022.3F
PINEY POINT      0736           CALM  /  1   N/A

$$




USA.gov is the U.S. government's official web portal to all federal, state and local government web resources and services.